Home   Weather   Ostrava   Past weeks

Flag for Czech Republic Past Weather in Ostrava, Czech Republic — Yesterday and Last 2 Weeks

43 °F


Feels Like: 43 °F
Forecast: 52 / 64 °F
Wind: 2 mph from North

Location: Ostrava / Mosnov

Current Time: Oct 24, 2016 at 3:46:23 AM

Latest Report: Oct 24, 2016 at 3:00 AM

Visibility: 10 mi

Pressure: 30.07 "Hg

Humidity: 93%

Dew Point: 41 °F

Location of OstravaLocation

Past Weather in Ostrava — Graph


Ostrava Temperature Yesterday

Maximum temperature yesterday: 59 °F (at 2:00 PM)
Minimum temperature yesterday: 37 °F (at 6:00 AM)
Average temperature yesterday: 47 °F

High & Low Weather Summary for the Past Weeks

High64 °F (Oct 15, 1:30 PM)100% (Oct 9, 2:00 AM)30.36 "Hg (Oct 9, 2:00 AM)
Low34 °F (Oct 14, 5:00 AM)51% (Oct 14, 4:00 PM)29.92 "Hg (Oct 12, 3:00 AM)
Average46 °F88%30.10 "Hg
* Reported Oct 9 2:00 AM — Oct 24 2:30 AM, Ostrava, Weather by CustomWeather, © 2016

Note: Actual official high and low records may vary slightly from our data, if they occured in-between our weather recording intervals... More about our weather records


Ostrava Weather History for the Previous 24 Hours

Scroll right to see more
Time TempWeatherWind HumidityBarometerVisibility
2:30 AM
Mon, Oct 24
45 °FClear.2 mph87%30.07 "Hg10 mi
2:00 AM45 °FClear.1 mph87%30.09 "Hg10 mi
1:30 AM43 °FClear.1 mph87%30.07 "Hg10 mi
1:00 AM45 °FClear.5 mph87%30.07 "Hg10 mi
12:30 AM45 °FClear.2 mph87%30.07 "Hg10 mi
12:00 AM45 °FClear.No wind87%30.07 "Hg10 mi
11:30 PM
Sun, Oct 23
46 °FClear.No wind82%30.09 "Hg10 mi
11:00 PM46 °FClear.3 mph82%30.09 "Hg10 mi
10:30 PM50 °FPassing clouds.6 mph71%30.07 "HgN/A
10:00 PM50 °FPassing clouds.3 mph76%30.07 "HgN/A
9:30 PM50 °FClear.2 mph71%30.07 "Hg10 mi
9:00 PM48 °FClear.2 mph82%30.07 "Hg10 mi
8:30 PM48 °FClear.2 mph82%30.07 "Hg10 mi
8:00 PM50 °FClear.1 mph71%30.07 "Hg10 mi
7:30 PM50 °FClear.2 mph71%30.07 "Hg10 mi
7:00 PM52 °FClear.1 mph67%30.07 "Hg10 mi
6:30 PM50 °FClear.3 mph71%30.07 "Hg10 mi
6:00 PM54 °FPassing clouds.2 mph63%30.07 "HgN/A
5:30 PM54 °FPartly sunny.3 mph58%30.07 "HgN/A
5:00 PM55 °FPartly sunny.6 mph59%30.07 "HgN/A
4:30 PM55 °FPartly sunny.6 mph55%30.07 "HgN/A
4:00 PM55 °FScattered clouds.8 mph59%30.07 "HgN/A
3:30 PM55 °FScattered clouds.9 mph55%30.04 "HgN/A
3:00 PM57 °FScattered clouds.8 mph55%30.04 "HgN/A
2:30 PM57 °FPassing clouds.9 mph51%30.04 "HgN/A
2:00 PM59 °FScattered clouds.8 mph51%30.07 "HgN/A
1:30 PM57 °FPassing clouds.8 mph51%30.07 "HgN/A
1:00 PM57 °FPassing clouds.12 mph55%30.07 "HgN/A
12:30 PM55 °FPassing clouds.9 mph55%30.07 "HgN/A
12:00 PM55 °FPassing clouds.2 mph59%30.07 "HgN/A
11:30 AM52 °FPassing clouds.2 mph72%30.07 "HgN/A
11:00 AM50 °FPassing clouds.3 mph76%30.07 "HgN/A
10:30 AM48 °FPassing clouds.2 mph82%30.07 "HgN/A
10:00 AM46 °FPassing clouds.2 mph82%30.07 "Hg5 mi
9:30 AM43 °FClear.2 mph87%30.07 "Hg4 mi
9:00 AM41 °FPassing clouds.No wind93%30.07 "Hg4 mi
8:30 AM39 °FFog.No wind93%30.07 "Hg2 mi
8:00 AM37 °FFog.2 mph93%30.07 "Hg1 mi
7:30 AM37 °FFog.2 mph93%30.07 "Hg1 mi
7:00 AM37 °FFog.No wind93%30.07 "Hg3 mi
6:30 AM37 °FPassing clouds.No wind100%30.04 "Hg4 mi
6:00 AM37 °FPassing clouds.No wind100%30.04 "Hg4 mi
5:30 AM39 °FPassing clouds.2 mph93%30.04 "Hg5 mi
5:00 AM39 °FPassing clouds.2 mph100%30.04 "Hg6 mi
4:30 AM39 °FPassing clouds.2 mph100%30.04 "HgN/A
4:00 AM41 °FOvercast.3 mph93%30.04 "HgN/A
3:30 AM41 °FPassing clouds.5 mph93%30.04 "HgN/A
3:00 AM41 °FPassing clouds.6 mph93%30.04 "HgN/A
Weather by CustomWeather, © 2016

See weather overviewHow to use our weather pages